Portada
METAR-TAF:

METAR-TAF

Aeroports :

Bombai, Índia

latitud: 19-07N, longitud: 072-51E, altitud: 8 m

Observació

L'informe es va fer fa 14 minuts, a les 02:30 UTC
Vent 5 kt del Sud
Temperatura 25°C
Humitat 69%
Pressió 1013 hPa
Visibilitat: 2200 m
Escasses núvols a una alçada de 2000 ft
Núvols disperses a una alçada de 10000 ft
calitja

METAR: VABB 160230Z 17005KT 2200 HZ FEW020 SCT100 25/19 Q1013 NOSIG

Hora: 08:14 (02:44 UTC)

Pronòstic

L'informe es va fer fa 44 minuts, a les 02:00 UTC
Pronòstic vàlid del 16 a les 03 UTC al 16 a les 12 UTC
Vent 6 kt del Est/Sud-Est
Visibilitat: 2500 m
Escasses núvols a una alçada de 10000 ft
calitja
Evolucionant progressivament
l' 16 a les 04 UTC al 16 a les 06 UTC
Visibilitat: 3000 m
fum
Evolucionant progressivament
l' 16 a les 07 UTC al 16 a les 09 UTC
Vent 8 kt del Oest
Visibilitat: 4000 m
fum

TAF: VABB 160200Z 1603/1612 11006KT 2500 HZ FEW100 BECMG 1604/1606 3000 FU NSC BECMG 1607/1609 28008KT 4000 FU

Observacions i pronòstics meteorològics de més de 4000 aeroports (METAR i TAF).

Les estacions disponibles són els punts grocs i vermells al mapa.

Posi el ratolí al punt desitjat per veure el nom de l'estació.

Feu clic per veure les observacions i els pronòstics meteorològics.

Per canviar el mapa: feu clic els botons verds amb una creu de color negre per apropar; al botó verd amb un guió per allunyar la imatge; o en les fletxes verdes per a mapes adjacents.


METAR-TAF: